{"data":{"norad_id":59534,"epoch":"2026-09-21T03:38:37.578048Z","epoch_age_seconds":111881,"freshness":"FRESH","line1":"1 59534U 24074A   26264.15182382 -.00000148  00000+0  41550-5 0  9996","line2":"2 59534  43.0030 308.7653 0001238 275.2736  84.7975 15.27576265136035","mean_motion":15.27576265,"eccentricity":0.0001238,"inclination_deg":43.003,"raan_deg":308.7653,"arg_perigee_deg":275.2736,"mean_anomaly_deg":84.7975,"bstar":4.155e-6,"rev_number":13603,"period_min":94.266979200544,"perigee_km":482.21086377284,"apogee_km":483.90969621936,"semimajor_km":6861.1972799961,"source":"CELESTRAK","updated_at":"2026-09-22T09:00:48.967407Z"}}